GM4ZUK-13 Weather Reports


time (UTC)temp
C
wind
direction
speed
KPH
gust
KPH
rain 1hr
cm
rain 24hr
cm
rain mn
cm
humidity
%
barometer
mb
20260508164557 13 132 6.4 9.7 0.00 0.00 0.00 76 1023.8
20260508163659 13 124 3.2 6.4 0.00 0.00 0.00 74 1023.9
20260508162759 13 124 3.2 9.7 0.00 0.00 0.00 73 1023.6
20260508162110 13 135 3.2 11.3 0.00 0.00 0.00 73 1023.6
20260508160959 13 143 3.2 11.3 0.00 0.00 0.00 71 1023.5
20260508160058 14 125 6.4 11.3 0.00 0.00 0.00 71 1023.5
20260508155202 14 124 3.2 11.3 0.00 0.00 0.00 71 1023.3
20260508154258 13 136 4.8 9.7 0.00 0.00 0.00 71 1023.4
20260508153359 13 148 6.4 11.3 0.00 0.00 0.00 72 1023.4
20260508152457 13 146 6.4 17.7 0.00 0.00 0.00 72 1023.3
20260508151559 13 142 4.8 14.5 0.00 0.00 0.00 72 1023.2
20260508150659 15 148 4.8 9.7 0.00 0.00 0.00 67 1023.1
20260508145757 15 175 0.0 9.7 0.00 0.00 0.00 65 1023.1
20260508144857 16 134 3.2 9.7 0.00 0.00 0.00 54 1023.2
20260508143958 15 157 3.2 11.3 0.00 0.00 0.00 64 1022.9
20260508143059 16 192 3.2 9.7 0.00 0.00 0.00 53 1022.9
20260508142159 16 247 1.6 3.2 0.00 0.00 0.00 53 1023.0
20260508141257 16 245 0.0 6.4 0.00 0.00 0.00 49 1022.7
20260508140358 16 251 1.6 6.4 0.00 0.00 0.00 52 1022.8
20260508135459 16 226 3.2 6.4 0.00 0.00 0.00 49 1022.8
20260508134557 16 202 1.6 6.4 0.00 0.00 0.00 52 1022.6
20260508133913 17 212 3.2 6.4 0.00 0.00 0.00 51 1022.6
20260508133010 16 220 1.6 9.7 0.00 0.00 0.00 54 1022.5
20260508131859 16 188 3.2 9.7 0.00 0.00 0.00 52 1022.4
20260508130959 16 212 1.6 6.4 0.00 0.00 0.00 50 1022.4
20260508130059 16 196 3.2 9.7 0.00 0.00 0.00 50 1022.6
20260508125157 18 220 3.2 6.4 0.00 0.00 0.00 46 1022.5
20260508124259 16 254 3.2 6.4 0.00 0.00 0.00 50 1022.5
20260508123609 17 247 1.6 6.4 0.00 0.00 0.00 52 1022.2
20260508122457 17 248 1.6 6.4 0.00 0.00 0.00 53 1022.3
20260508121559 16 206 3.2 12.9 0.00 0.00 0.00 51 1022.1
20260508120657 16 165 0.0 6.4 0.00 0.00 0.00 59 1022.3
20260508115758 16 179 3.2 12.9 0.00 0.00 0.00 59 1022.3
20260508114859 15 180 6.4 6.4 0.00 0.00 0.00 59 1022.2
20260508113959 15 192 4.8 9.7 0.00 0.00 0.00 57 1022.3
20260508113058 15 225 3.2 3.2 0.00 0.00 0.00 60 1021.9
20260508112157 15 193 3.2 11.3 0.00 0.00 0.00 60 1022.0
20260508111259 16 222 3.2 3.2 0.00 0.00 0.00 58 1021.9
20260508110357 15 189 1.6 17.7 0.00 0.00 0.00 61 1021.7
20260508105457 15 180 3.2 17.7 0.00 0.00 0.00 62 1022.0
20260508104812 15 192 8.0 17.7 0.00 0.00 0.00 60 1021.8
20260508103909 15 215 3.2 6.4 0.00 0.00 0.00 58 1022.0
20260508102759 15 231 1.6 6.4 0.00 0.00 0.00 60 1021.9
20260508101859 14 262 3.2 6.4 0.00 0.00 0.00 62 1021.7
20260508100957 14 252 3.2 6.4 0.00 0.00 0.00 61 1021.7
20260508100059 14 241 3.2 6.4 0.00 0.00 0.00 64 1022.0
20260508095159 13 236 3.2 6.4 0.00 0.00 0.00 64 1021.8
20260508094259 13 251 3.2 3.2 0.00 0.00 0.00 66 1021.9
20260508093359 13 238 0.0 6.4 0.00 0.00 0.00 68 1021.9
20260508092459 13 247 3.2 3.2 0.00 0.00 0.00 68 1022.0
20260508091559 13 247 0.0 3.2 0.00 0.00 0.00 71 1022.0
20260508090659 12 241 1.6 3.2 0.00 0.00 0.00 72 1021.7
20260508085758 12 195 0.0 3.2 0.00 0.00 0.00 73 1021.7
20260508084859 13 180 0.0 3.2 0.00 0.00 0.00 73 1021.7
20260508083959 12 180 1.6 3.2 0.00 0.00 0.00 74 1021.5
20260508083312 12 169 0.0 6.4 0.00 0.00 0.00 74 1021.6
20260508082157 12 194 1.6 11.3 0.00 0.00 0.00 73 1021.5
20260508081257 12 197 3.2 6.4 0.00 0.00 0.00 74 1021.4
20260508080357 12 177 3.2 6.4 0.00 0.00 0.00 75 1021.3
20260508075712 13 180 1.6 6.4 0.00 0.00 0.00 75 1021.3
20260508074600 12 203 1.6 6.4 0.00 0.00 0.00 76 1021.4
20260508073659 12 196 0.0 6.4 0.00 0.00 0.00 77 1021.2
20260508073009 12 180 1.6 9.7 0.00 0.00 0.00 78 1021.1
20260508071859 11 216 1.6 3.2 0.00 0.00 0.00 80 1021.0
20260508071208 11 166 0.0 3.2 0.00 0.00 0.00 81 1020.9
20260508070057 11 112 0.0 3.2 0.00 0.00 0.00 81 1020.8
20260508065158 10 112 0.0 6.4 0.00 0.00 0.00 82 1020.8
20260508064259 10 128 3.2 6.4 0.00 0.00 0.00 81 1020.5
20260508063358 10 119 3.2 6.4 0.00 0.00 0.00 82 1020.3
20260508062457 10 112 4.8 6.4 0.00 0.00 0.00 84 1020.4
20260508061559 10 154 3.2 3.2 0.00 0.00 0.00 83 1020.5
20260508060658 10 157 3.2 3.2 0.00 0.00 0.00 82 1020.5
20260508055759 10 0 0.0 0.0 0.00 0.00 0.00 81 1020.5
20260508054857 10 0 0.0 0.0 0.00 0.00 0.00 80 1020.4
20260508054001 10 157 0.0 3.2 0.00 0.00 0.00 83 1020.4
20260508053059 9 157 1.6 3.2 0.00 0.00 0.00 86 1020.1
20260508052158 8 157 0.0 3.2 0.00 0.00 0.00 87 1020.0
20260508051258 8 157 0.0 3.2 0.00 0.00 0.00 87 1019.9
20260508050402 8 157 0.0 3.2 0.00 0.00 0.00 87 1019.9
20260508045459 8 0 0.0 0.0 0.00 0.00 0.00 86 1019.6
20260508044811 8 184 0.0 3.2 0.00 0.00 0.00 86 1019.7
20260508043659 8 188 0.0 3.2 0.00 0.00 0.00 86 1019.6
20260508042759 8 180 0.0 3.2 0.00 0.00 0.00 86 1019.7
20260508042108 8 180 0.0 3.2 0.00 0.00 0.00 86 1019.7
20260508040959 8 178 0.0 6.4 0.00 0.00 0.00 85 1019.5
20260508040057 8 159 3.2 6.4 0.00 0.00 0.00 85 1019.6
20260508035159 8 143 3.2 9.7 0.00 0.00 0.00 85 1019.3
20260508034258 8 140 3.2 6.4 0.00 0.00 0.00 85 1019.2
20260508033357 8 139 3.2 6.4 0.00 0.00 0.00 85 1019.3
20260508032457 8 136 3.2 9.7 0.00 0.00 0.00 85 1019.4
20260508031809 8 144 3.2 6.4 0.00 0.00 0.00 85 1019.3
20260508030657 8 165 6.4 9.7 0.00 0.00 0.00 87 1019.4
20260508025757 8 165 4.8 6.4 0.00 0.00 0.00 87 1019.4
20260508025112 8 178 3.2 9.7 0.00 0.00 0.00 87 1019.3
20260508023959 8 175 4.8 9.7 0.00 0.00 0.00 87 1019.3
20260508023058 8 157 4.8 11.3 0.00 0.00 0.00 86 1019.3
20260508022159 8 162 4.8 12.9 0.00 0.00 0.00 86 1019.2
20260508021259 8 164 6.4 12.9 0.00 0.00 0.00 86 1019.2
20260508020358 8 155 6.4 11.3 0.00 0.00 0.00 86 1019.3
20260508014557 8 167 3.2 12.9 0.00 0.00 0.00 86 1019.3
20260508013659 8 177 6.4 12.9 0.00 0.00 0.00 88 1019.1
20260508012757 7 194 3.2 6.4 0.00 0.00 0.00 89 1019.1
20260508011859 7 202 0.0 6.4 0.00 0.00 0.00 88 1019.2
20260508010959 7 174 0.0 6.4 0.00 0.00 0.00 87 1019.3
20260508010059 8 179 3.2 9.7 0.00 0.00 0.00 87 1019.1
20260508005157 8 177 3.2 12.9 0.00 0.00 0.00 86 1019.4
20260508004257 8 174 3.2 11.3 0.00 0.00 0.00 85 1019.0
20260508003400 8 164 3.2 11.3 0.00 0.00 0.00 85 1019.4
20260508002459 9 161 4.8 12.9 0.00 0.00 0.00 84 1019.0
20260508001559 8 163 6.4 9.7 0.00 0.00 0.00 86 1019.0
20260508000657 8 180 3.2 6.4 0.00 0.00 0.00 87 1019.2
20260507235759 8 179 3.2 11.3 0.00 0.00 0.00 87 1019.2
20260507234859 8 182 1.6 11.3 0.00 0.00 0.00 87 1019.1
20260507233957 8 172 3.2 12.9 0.00 0.00 0.00 87 1019.1
20260507233059 8 169 6.4 12.9 0.00 0.00 0.00 87 1019.2
20260507232159 8 176 3.2 11.3 0.00 0.00 0.00 89 1019.0
20260507231259 8 157 1.6 3.2 0.00 0.00 0.00 90 1019.1
20260507230359 7 157 0.0 3.2 0.00 0.00 0.00 91 1019.3
20260507225457 7 160 0.0 3.2 0.00 0.00 0.00 90 1019.0
20260507224557 7 180 0.0 3.2 0.00 0.00 0.00 89 1019.3
20260507223657 8 0 0.0 0.0 0.00 0.00 0.00 88 1019.4
20260507223008 8 180 0.0 3.2 0.00 0.00 0.00 87 1019.2
20260507221858 8 187 1.6 11.3 0.00 0.00 0.00 87 1019.2
20260507220957 8 185 1.6 9.7 0.00 0.00 0.00 86 1019.0
20260507220059 9 163 4.8 11.3 0.00 0.00 0.00 85 1019.1
20260507215407 9 163 4.8 11.3 0.00 0.00 0.00 84 1019.1
20260507214259 10 154 3.2 12.9 0.00 0.00 0.00 83 1019.2
20260507213357 10 149 4.8 12.9 0.00 0.00 0.00 85 1019.2
20260507212710 9 158 3.2 6.4 0.00 0.00 0.00 87 1019.2
20260507211559 9 138 3.2 9.7 0.00 0.00 0.00 89 1019.4
20260507210657 9 137 3.2 6.4 0.00 0.00 0.00 89 1019.3
20260507210012 8 131 3.2 6.4 0.00 0.00 0.00 90 1019.3
20260507204859 9 131 3.2 11.3 0.00 0.00 0.00 90 1019.1
20260507203959 9 127 3.2 6.4 0.00 0.00 0.00 89 1019.0
20260507203057 9 131 3.2 6.4 0.00 0.00 0.00 89 1019.2
20260507202157 9 140 3.2 6.4 0.00 0.00 0.00 89 1019.2
20260507201257 8 142 3.2 12.9 0.00 0.00 0.00 89 1018.9
20260507200401 9 130 6.4 12.9 0.00 0.00 0.00 89 1019.0
20260507195708 9 124 6.4 14.5 0.00 0.00 0.00 89 1018.9
20260507194557 9 138 6.4 11.3 0.00 0.00 0.00 89 1018.9
20260507193659 9 137 3.2 11.3 0.00 0.00 0.00 89 1019.1
20260507192758 9 133 6.4 11.3 0.00 0.00 0.00 89 1018.7
20260507191857 9 137 3.2 12.9 0.00 0.00 0.00 89 1018.8
20260507190959 9 136 6.4 12.9 0.00 0.00 0.00 88 1019.1
20260507190059 10 151 6.4 9.7 0.00 0.00 0.00 88 1019.0
20260507185159 10 143 6.4 14.5 0.00 0.00 0.00 88 1018.9
20260507184259 9 149 8.0 12.9 0.00 0.00 0.00 88 1018.9
20260507183609 9 144 3.2 12.9 0.00 0.00 0.00 87 1018.9
20260507182713 10 136 4.8 17.7 0.00 0.00 0.00 87 1019.2
20260507181559 9 141 4.8 11.3 0.00 0.00 0.00 87 1018.8
20260507180657 9 139 3.2 11.3 0.00 0.00 0.00 87 1019.1
20260507175757 9 124 3.2 9.7 0.00 0.00 0.00 87 1019.0
20260507174857 9 126 3.2 11.3 0.00 0.00 0.00 88 1019.0
20260507173958 9 135 3.2 17.7 0.00 0.00 0.00 87 1019.0
20260507173057 9 130 4.8 9.7 0.00 0.00 0.00 85 1019.2
20260507172157 9 138 4.8 9.7 0.00 0.00 0.00 85 1019.2
20260507171259 9 128 4.8 9.7 0.00 0.00 0.00 85 1019.1
20260507170359 9 143 4.8 9.7 0.00 0.00 0.00 86 1019.2
20260507165459 10 139 4.8 11.3 0.00 0.00 0.00 86 1019.5
20260507164807 10 151 4.8 11.3 0.00 0.00 0.00 85 1019.4